Time,TemperatureF,DewpointF,PressureIn,WindDirection,WindDirectionDegrees,WindSpeedMPH,WindSpeedGustMPH,Humidity,HourlyPrecipIn,Conditions,Clouds,dailyrainin,SoftwareType,DateUTC
2014-08-27 00:04:00,77.7,64.1,28.50,North,0,0.0,0.0,63,0.00,,---,0.00,VWS V14.01,2014-08-27 05:04:00,
2014-08-27 00:10:00,77.7,64.1,28.50,North,0,0.0,0.0,63,0.00,,---,0.00,VWS V14.01,2014-08-27 05:10:00,
2014-08-27 00:15:00,77.7,64.1,28.50,NNE,29,0.0,0.0,63,0.00,,---,0.00,VWS V14.01,2014-08-27 05:15:00,
2014-08-27 00:20:00,77.5,64.0,28.50,NNE,29,0.0,0.0,63,0.00,,---,0.00,VWS V14.01,2014-08-27 05:20:00,
2014-08-27 00:25:00,77.5,64.0,28.50,NNE,29,0.0,0.0,63,0.00,,---,0.00,VWS V14.01,2014-08-27 05:25:00,
2014-08-27 00:30:00,77.4,63.8,28.50,NNE,29,0.0,0.0,63,0.00,,---,0.00,VWS V14.01,2014-08-27 05:30:00,
2014-08-27 00:35:00,77.2,64.1,28.50,NNE,29,0.0,0.0,64,0.00,,---,0.00,VWS V14.01,2014-08-27 05:35:00,
2014-08-27 00:40:00,77.0,63.9,28.50,NE,44,0.0,2.2,64,0.00,,---,0.00,VWS V14.01,2014-08-27 05:40:00,
2014-08-27 00:45:00,77.0,63.9,28.50,East,79,0.0,2.2,64,0.00,,---,0.00,VWS V14.01,2014-08-27 05:45:00,
2014-08-27 00:51:00,76.8,64.2,28.50,East,79,0.0,2.2,65,0.00,,---,0.00,VWS V14.01,2014-08-27 05:51:00,
2014-08-27 00:56:00,76.6,64.0,28.50,East,79,0.0,2.2,65,0.00,,---,0.00,VWS V14.01,2014-08-27 05:56:00,
2014-08-27 01:01:00,76.6,64.4,28.50,NNE,20,0.0,0.0,66,0.00,,---,0.00,VWS V14.01,2014-08-27 06:01:00,
2014-08-27 01:06:00,76.6,64.4,28.50,NNE,21,0.0,0.0,66,0.00,,---,0.00,VWS V14.01,2014-08-27 06:06:00,
2014-08-27 01:11:00,76.6,64.4,28.50,NNE,21,0.0,0.0,66,0.00,,---,0.00,VWS V14.01,2014-08-27 06:11:00,
2014-08-27 01:16:00,76.6,64.4,28.50,NNE,21,0.0,0.0,66,0.00,,---,0.00,VWS V14.01,2014-08-27 06:16:00,
2014-08-27 01:21:00,76.6,64.9,28.50,NNE,21,0.0,0.0,67,0.00,,---,0.00,VWS V14.01,2014-08-27 06:21:00,
2014-08-27 01:26:00,76.6,64.4,28.50,NNE,21,0.0,0.0,66,0.00,,---,0.00,VWS V14.01,2014-08-27 06:26:00,
2014-08-27 01:31:00,76.8,64.6,28.50,NNE,21,0.0,0.0,66,0.00,,---,0.00,VWS V14.01,2014-08-27 06:31:00,
2014-08-27 01:37:00,76.8,64.6,28.50,NNE,21,0.0,0.0,66,0.00,,---,0.00,VWS V14.01,2014-08-27 06:37:00,
2014-08-27 01:42:00,76.6,64.4,28.50,NNE,17,0.0,0.0,66,0.00,,---,0.00,VWS V14.01,2014-08-27 06:42:00,
2014-08-27 01:47:00,76.8,65.0,28.50,NNE,17,0.0,0.0,67,0.00,,---,0.00,VWS V14.01,2014-08-27 06:47:00,
2014-08-27 01:52:00,76.8,65.0,28.50,West,264,0.0,3.1,67,0.00,,---,0.00,VWS V14.01,2014-08-27 06:52:00,
2014-08-27 01:57:00,76.6,64.9,28.50,West,264,0.0,3.1,67,0.00,,---,0.00,VWS V14.01,2014-08-27 06:57:00,
2014-08-27 02:02:00,76.5,64.7,28.50,West,264,0.0,0.0,67,0.00,,---,0.00,VWS V14.01,2014-08-27 07:02:00,
2014-08-27 02:07:00,76.3,64.5,28.50,North,0,4.0,4.9,67,0.00,,---,0.00,VWS V14.01,2014-08-27 07:07:00,
2014-08-27 02:12:00,76.3,64.5,28.50,North,0,0.0,4.9,67,0.00,,---,0.00,VWS V14.01,2014-08-27 07:12:00,
2014-08-27 02:17:00,76.3,64.9,28.50,North,0,0.0,4.9,68,0.00,,---,0.00,VWS V14.01,2014-08-27 07:17:00,
2014-08-27 02:22:00,76.3,64.9,28.50,North,0,0.0,4.9,68,0.00,,---,0.00,VWS V14.01,2014-08-27 07:22:00,
2014-08-27 02:28:00,76.3,64.9,28.50,North,0,0.0,4.9,68,0.00,,---,0.00,VWS V14.01,2014-08-27 07:28:00,
2014-08-27 02:33:00,76.1,64.8,28.50,North,0,0.0,4.9,68,0.00,,---,0.00,VWS V14.01,2014-08-27 07:33:00,
2014-08-27 02:38:00,76.1,64.8,28.50,North,0,0.0,4.9,68,0.00,,---,0.00,VWS V14.01,2014-08-27 07:38:00,
2014-08-27 02:43:00,76.1,64.8,28.50,North,0,0.0,4.9,68,0.00,,---,0.00,VWS V14.01,2014-08-27 07:43:00,
2014-08-27 02:48:00,76.3,64.9,28.50,ESE,106,0.0,4.9,68,0.00,,---,0.00,VWS V14.01,2014-08-27 07:48:00,
2014-08-27 02:53:00,76.3,64.9,28.50,NE,35,0.0,4.9,68,0.00,,---,0.00,VWS V14.01,2014-08-27 07:53:00,
2014-08-27 02:58:00,76.5,65.1,28.50,East,95,2.2,4.9,68,0.00,,---,0.00,VWS V14.01,2014-08-27 07:58:00,
2014-08-27 03:03:00,76.5,65.1,28.50,East,101,0.0,2.2,68,0.00,,---,0.00,VWS V14.01,2014-08-27 08:03:00,
2014-08-27 03:09:00,76.5,65.1,28.50,NNW,329,0.0,2.7,68,0.00,,---,0.00,VWS V14.01,2014-08-27 08:09:00,
2014-08-27 03:14:00,76.3,64.5,28.50,ENE,75,0.0,4.9,67,0.00,,---,0.00,VWS V14.01,2014-08-27 08:14:00,
2014-08-27 03:19:00,76.3,64.9,28.50,ENE,57,0.0,4.9,68,0.00,,---,0.00,VWS V14.01,2014-08-27 08:19:00,
2014-08-27 03:24:00,76.1,64.8,28.50,SSE,150,0.0,4.9,68,0.00,,---,0.00,VWS V14.01,2014-08-27 08:24:00,
2014-08-27 03:29:00,76.1,64.8,28.50,SSE,150,0.0,4.9,68,0.00,,---,0.00,VWS V14.01,2014-08-27 08:29:00,
2014-08-27 03:34:00,76.1,64.8,28.47,SSE,150,0.0,4.9,68,0.00,,---,0.00,VWS V14.01,2014-08-27 08:34:00,
2014-08-27 03:39:00,75.9,64.6,28.47,SSE,150,0.0,4.9,68,0.00,,---,0.00,VWS V14.01,2014-08-27 08:39:00,
2014-08-27 03:44:00,75.9,64.6,28.47,SSE,150,0.0,4.9,68,0.00,,---,0.00,VWS V14.01,2014-08-27 08:44:00,
2014-08-27 03:50:00,75.7,64.4,28.47,SSE,150,0.0,4.9,68,0.00,,---,0.00,VWS V14.01,2014-08-27 08:50:00,
2014-08-27 03:55:00,75.7,64.4,28.47,ENE,57,3.6,4.9,68,0.00,,---,0.00,VWS V14.01,2014-08-27 08:55:00,
2014-08-27 04:00:00,75.7,64.9,28.47,SSE,151,2.7,4.9,69,0.00,,---,0.00,VWS V14.01,2014-08-27 09:00:00,
2014-08-27 04:05:00,75.6,64.7,28.47,South,182,2.2,3.6,69,0.00,,---,0.00,VWS V14.01,2014-08-27 09:05:00,
2014-08-27 04:10:00,75.6,64.7,28.47,South,182,0.0,3.6,69,0.00,,---,0.00,VWS V14.01,2014-08-27 09:10:00,
2014-08-27 04:15:00,75.6,64.7,28.47,South,182,0.0,3.6,69,0.00,,---,0.00,VWS V14.01,2014-08-27 09:15:00,
2014-08-27 04:20:00,75.6,64.7,28.47,South,182,0.0,3.6,69,0.00,,---,0.00,VWS V14.01,2014-08-27 09:20:00,
2014-08-27 04:25:00,75.4,64.9,28.47,SSW,206,2.2,3.6,70,0.00,,---,0.00,VWS V14.01,2014-08-27 09:25:00,
2014-08-27 04:30:00,75.4,64.9,28.50,WSW,241,0.0,3.6,70,0.00,,---,0.00,VWS V14.01,2014-08-27 09:30:00,
2014-08-27 04:35:00,75.2,64.8,28.50,WSW,240,0.0,4.9,70,0.00,,---,0.00,VWS V14.01,2014-08-27 09:35:00,
2014-08-27 04:40:00,75.2,65.2,28.50,WSW,240,0.0,4.9,71,0.00,,---,0.00,VWS V14.01,2014-08-27 09:40:00,
2014-08-27 04:46:00,75.0,65.4,28.50,WSW,240,0.0,4.9,72,0.00,,---,0.00,VWS V14.01,2014-08-27 09:46:00,
2014-08-27 04:51:00,75.0,65.4,28.50,WSW,240,0.0,4.9,72,0.00,,---,0.00,VWS V14.01,2014-08-27 09:51:00,
2014-08-27 04:56:00,74.8,65.2,28.50,WSW,240,0.0,4.9,72,0.00,,---,0.00,VWS V14.01,2014-08-27 09:56:00,
2014-08-27 05:01:00,74.8,65.6,28.50,WSW,245,2.7,3.1,73,0.00,,---,0.00,VWS V14.01,2014-08-27 10:01:00,
2014-08-27 05:06:00,74.8,65.6,28.50,WSW,245,0.0,3.1,73,0.00,,---,0.00,VWS V14.01,2014-08-27 10:06:00,
2014-08-27 05:11:00,74.8,65.6,28.50,WSW,245,0.0,3.1,73,0.00,,---,0.00,VWS V14.01,2014-08-27 10:11:00,
2014-08-27 05:16:00,74.8,65.6,28.50,WSW,245,0.0,3.1,73,0.00,,---,0.00,VWS V14.01,2014-08-27 10:16:00,
2014-08-27 05:21:00,74.8,65.6,28.50,WSW,245,0.0,3.1,73,0.00,,---,0.00,VWS V14.01,2014-08-27 10:21:00,
2014-08-27 05:26:00,74.7,65.4,28.50,WSW,245,0.0,3.1,73,0.00,,---,0.00,VWS V14.01,2014-08-27 10:26:00,
2014-08-27 05:32:00,74.7,65.4,28.50,WSW,245,0.0,3.1,73,0.00,,---,0.00,VWS V14.01,2014-08-27 10:32:00,
2014-08-27 05:37:00,74.7,65.4,28.50,WSW,245,0.0,3.1,73,0.00,,---,0.00,VWS V14.01,2014-08-27 10:37:00,
2014-08-27 05:42:00,74.7,65.4,28.50,WSW,245,0.0,3.1,73,0.00,,---,0.00,VWS V14.01,2014-08-27 10:42:00,
2014-08-27 05:47:00,74.7,65.4,28.50,WSW,245,0.0,3.1,73,0.00,,---,0.00,VWS V14.01,2014-08-27 10:47:00,
2014-08-27 05:52:00,74.7,65.4,28.50,WSW,245,0.0,3.1,73,0.00,,---,0.00,VWS V14.01,2014-08-27 10:52:00,
2014-08-27 05:57:00,74.7,65.4,28.50,WSW,245,0.0,3.1,73,0.00,,---,0.00,VWS V14.01,2014-08-27 10:57:00,
2014-08-27 06:02:00,74.5,65.7,28.50,WSW,245,0.0,0.0,74,0.00,,---,0.00,VWS V14.01,2014-08-27 11:02:00,
2014-08-27 06:07:00,74.5,65.7,28.50,WSW,245,0.0,0.0,74,0.00,,---,0.00,VWS V14.01,2014-08-27 11:07:00,
2014-08-27 06:13:00,74.3,65.5,28.50,WSW,245,0.0,0.0,74,0.00,,---,0.00,VWS V14.01,2014-08-27 11:13:00,
2014-08-27 06:18:00,74.3,65.5,28.50,WSW,245,0.0,0.0,74,0.00,,---,0.00,VWS V14.01,2014-08-27 11:18:00,
2014-08-27 06:23:00,73.9,65.1,28.50,WSW,245,0.0,0.0,74,0.00,,---,0.00,VWS V14.01,2014-08-27 11:23:00,
2014-08-27 06:28:00,73.8,65.0,28.50,WSW,245,0.0,0.0,74,0.00,,---,0.00,VWS V14.01,2014-08-27 11:28:00,
2014-08-27 06:33:00,73.8,65.3,28.50,WSW,245,0.0,0.0,75,0.00,,---,0.00,VWS V14.01,2014-08-27 11:33:00,
2014-08-27 06:38:00,73.6,65.6,28.50,SSW,205,3.1,4.0,76,0.00,,---,0.00,VWS V14.01,2014-08-27 11:38:00,
2014-08-27 06:43:00,73.6,65.9,28.50,SW,222,3.1,4.0,77,0.00,,---,0.00,VWS V14.01,2014-08-27 11:43:00,
2014-08-27 06:48:00,73.8,66.5,28.50,SSW,211,0.0,4.0,78,0.00,,---,0.00,VWS V14.01,2014-08-27 11:48:00,
2014-08-27 06:54:00,73.9,66.3,28.50,SSW,211,0.0,4.0,77,0.00,,---,0.00,VWS V14.01,2014-08-27 11:54:00,
2014-08-27 06:59:00,73.9,66.3,28.50,SSW,201,0.0,4.0,77,0.00,,---,0.00,VWS V14.01,2014-08-27 11:59:00,
2014-08-27 07:04:00,74.1,66.5,28.50,WSW,244,4.0,4.0,77,0.00,,---,0.00,VWS V14.01,2014-08-27 12:04:00,
2014-08-27 07:09:00,74.3,66.2,28.50,South,177,0.0,4.0,76,0.00,,---,0.00,VWS V14.01,2014-08-27 12:09:00,
2014-08-27 07:14:00,74.5,66.0,28.50,SSW,207,0.0,5.4,75,0.00,,---,0.00,VWS V14.01,2014-08-27 12:14:00,
2014-08-27 07:19:00,74.7,65.0,28.50,WSW,254,4.0,5.4,72,0.00,,---,0.00,VWS V14.01,2014-08-27 12:19:00,
2014-08-27 07:24:00,75.2,64.8,28.50,WSW,256,3.6,5.8,70,0.00,,---,0.00,VWS V14.01,2014-08-27 12:24:00,
2014-08-27 07:30:00,75.4,64.5,28.50,WSW,255,2.2,5.8,69,0.00,,---,0.00,VWS V14.01,2014-08-27 12:30:00,
2014-08-27 07:35:00,75.7,64.4,28.50,SSW,206,2.2,5.8,68,0.00,,---,0.00,VWS V14.01,2014-08-27 12:35:00,
2014-08-27 07:40:00,75.9,64.6,28.50,WSW,239,2.7,5.8,68,0.00,,---,0.00,VWS V14.01,2014-08-27 12:40:00,
2014-08-27 07:45:00,76.3,64.9,28.53,WSW,237,0.0,5.8,68,0.00,,---,0.00,VWS V14.01,2014-08-27 12:45:00,
2014-08-27 07:50:00,76.5,65.1,28.53,WSW,247,2.2,5.8,68,0.00,,---,0.00,VWS V14.01,2014-08-27 12:50:00,
2014-08-27 07:55:00,76.8,65.0,28.53,WSW,246,3.1,6.3,67,0.00,,---,0.00,VWS V14.01,2014-08-27 12:55:00,
2014-08-27 08:00:00,77.4,64.2,28.53,WSW,253,5.8,6.3,64,0.00,,---,0.00,VWS V14.01,2014-08-27 13:00:00,
2014-08-27 08:05:00,77.7,64.6,28.53,West,264,6.3,6.3,64,0.00,,---,0.00,VWS V14.01,2014-08-27 13:05:00,
2014-08-27 08:11:00,78.1,64.5,28.53,SW,235,3.1,6.3,63,0.00,,---,0.00,VWS V14.01,2014-08-27 13:11:00,
2014-08-27 08:16:00,78.3,64.6,28.53,WSW,250,2.7,6.7,63,0.00,,---,0.00,VWS V14.01,2014-08-27 13:16:00,
2014-08-27 08:21:00,78.6,64.1,28.53,West,266,5.8,7.6,61,0.00,,---,0.00,VWS V14.01,2014-08-27 13:21:00,
2014-08-27 08:26:00,78.8,63.8,28.53,SW,224,4.0,8.3,60,0.00,,---,0.00,VWS V14.01,2014-08-27 13:26:00,
2014-08-27 08:31:00,78.8,63.8,28.53,WNW,287,7.6,8.3,60,0.00,,---,0.00,VWS V14.01,2014-08-27 13:31:00,
2014-08-27 08:36:00,78.8,63.8,28.53,SW,222,2.2,8.3,60,0.00,,---,0.00,VWS V14.01,2014-08-27 13:36:00,
2014-08-27 08:41:00,78.8,63.8,28.53,West,264,3.6,10.5,60,0.00,,---,0.00,VWS V14.01,2014-08-27 13:41:00,
2014-08-27 08:46:00,78.4,63.4,28.53,SW,232,5.8,10.5,60,0.00,,---,0.00,VWS V14.01,2014-08-27 13:46:00,
2014-08-27 08:51:00,78.3,63.7,28.53,SW,231,3.6,10.5,61,0.00,,---,0.00,VWS V14.01,2014-08-27 13:51:00,
2014-08-27 08:57:00,78.1,63.1,28.53,WSW,252,5.4,10.5,60,0.00,,---,0.00,VWS V14.01,2014-08-27 13:57:00,
2014-08-27 09:02:00,78.3,63.2,28.53,SW,235,3.6,7.6,60,0.00,,---,0.00,VWS V14.01,2014-08-27 14:02:00,
2014-08-27 09:07:00,79.0,63.0,28.53,SSW,213,2.7,8.3,58,0.00,,---,0.00,VWS V14.01,2014-08-27 14:07:00,
2014-08-27 09:12:00,79.5,63.0,28.53,WSW,240,2.7,8.7,57,0.00,,---,0.00,VWS V14.01,2014-08-27 14:12:00,